Time,TemperatureF,DewpointF,PressureIn,WindDirection,WindDirectionDegrees,WindSpeedMPH,WindSpeedGustMPH,Humidity,HourlyPrecipIn,Conditions,Clouds,dailyrainin,SoftwareType,DateUTC
2013-01-14 00:04:00,51.0,48.0,-100.00,SW,235,6.0,10.0,92,-99.99,,,-99.99,,2013-01-14 05:04:00,
2013-01-14 00:12:00,50.0,48.0,-100.00,SW,225,5.0,9.0,92,-99.99,,,-99.99,,2013-01-14 05:12:00,
2013-01-14 00:22:00,50.0,48.0,-100.00,SW,230,5.0,9.0,92,-99.99,,,-99.99,,2013-01-14 05:22:00,
2013-01-14 00:33:00,50.0,48.0,-100.00,SW,235,6.0,12.0,92,-99.99,,,-99.99,,2013-01-14 05:33:00,
2013-01-14 00:43:00,50.0,48.0,-100.00,SW,225,3.0,12.0,92,-99.99,,,-99.99,,2013-01-14 05:43:00,
2013-01-14 00:52:00,51.0,48.0,-100.00,SW,230,6.0,13.0,91,-99.99,,,-99.99,,2013-01-14 05:52:00,
2013-01-14 01:03:00,51.0,48.0,-100.00,SW,235,9.0,15.0,92,-99.99,,,-99.99,,2013-01-14 06:03:00,
2013-01-14 01:12:00,51.0,49.0,-100.00,SW,225,10.0,16.0,92,-99.99,,,-99.99,,2013-01-14 06:12:00,
2013-01-14 01:23:00,51.0,49.0,-100.00,SW,235,8.0,21.0,91,-99.99,,,-99.99,,2013-01-14 06:23:00,
2013-01-14 01:33:00,51.0,48.0,-100.00,SW,235,10.0,22.0,92,-99.99,,,-99.99,,2013-01-14 06:33:00,
2013-01-14 01:43:00,51.0,48.0,-100.00,WSW,245,10.0,17.0,92,-99.99,,,-99.99,,2013-01-14 06:43:00,
2013-01-14 01:52:00,51.0,48.0,-100.00,SW,235,9.0,21.0,92,-99.99,,,-99.99,,2013-01-14 06:52:00,
2013-01-14 02:02:00,51.0,48.0,-100.00,WSW,245,9.0,20.0,92,-99.99,,,-99.99,,2013-01-14 07:02:00,
2013-01-14 02:43:00,50.0,49.0,-100.00,WSW,240,10.0,18.0,95,-99.99,,,-99.99,,2013-01-14 07:43:00,
2013-01-14 02:52:00,50.0,49.0,-100.00,SW,235,7.0,15.0,95,-99.99,,,-99.99,,2013-01-14 07:52:00,
2013-01-14 03:02:00,50.0,49.0,-100.00,SW,230,8.0,15.0,96,-99.99,,,-99.99,,2013-01-14 08:02:00,
2013-01-14 03:12:00,50.0,49.0,-100.00,WSW,240,8.0,12.0,97,-99.99,,,-99.99,,2013-01-14 08:12:00,
2013-01-14 03:22:00,50.0,49.0,-100.00,SW,225,8.0,12.0,97,-99.99,,,-99.99,,2013-01-14 08:22:00,
2013-01-14 03:33:00,50.0,49.0,-100.00,SW,230,7.0,13.0,98,-99.99,,,-99.99,,2013-01-14 08:33:00,
2013-01-14 03:42:00,49.0,49.0,-100.00,SW,235,7.0,12.0,99,-99.99,,,-99.99,,2013-01-14 08:42:00,
2013-01-14 03:53:00,49.0,49.0,-100.00,SW,230,5.0,10.0,99,-99.99,,,-99.99,,2013-01-14 08:53:00,
2013-01-14 04:03:00,49.0,49.0,-100.00,SW,220,8.0,14.0,99,-99.99,,,-99.99,,2013-01-14 09:03:00,
2013-01-14 04:12:00,49.0,49.0,-100.00,SW,230,6.0,12.0,99,-99.99,,,-99.99,,2013-01-14 09:12:00,
2013-01-14 04:23:00,49.0,49.0,-100.00,SSW,205,5.0,9.0,99,-99.99,,,-99.99,,2013-01-14 09:23:00,
2013-01-14 04:33:00,50.0,49.0,-100.00,SW,220,6.0,15.0,99,-99.99,,,-99.99,,2013-01-14 09:33:00,
2013-01-14 04:43:00,50.0,50.0,-100.00,SW,235,7.0,15.0,100,-99.99,,,-99.99,,2013-01-14 09:43:00,
2013-01-14 04:52:00,50.0,50.0,-100.00,SW,215,8.0,14.0,99,-99.99,,,-99.99,,2013-01-14 09:52:00,
2013-01-14 05:03:00,50.0,50.0,-100.00,SW,225,8.0,13.0,99,-99.99,,,-99.99,,2013-01-14 10:03:00,
2013-01-14 05:12:00,51.0,50.0,-100.00,SW,235,8.0,14.0,98,-99.99,,,-99.99,,2013-01-14 10:12:00,
2013-01-14 05:23:00,51.0,50.0,-100.00,SW,235,8.0,14.0,98,-99.99,,,-99.99,,2013-01-14 10:23:00,
2013-01-14 05:32:00,51.0,50.0,-100.00,SW,230,6.0,15.0,97,-99.99,,,-99.99,,2013-01-14 10:32:00,
2013-01-14 05:43:00,51.0,50.0,-100.00,SW,225,8.0,20.0,97,-99.99,,,-99.99,,2013-01-14 10:43:00,
2013-01-14 05:52:00,51.0,50.0,-100.00,SW,235,7.0,15.0,97,-99.99,,,-99.99,,2013-01-14 10:52:00,
2013-01-14 06:02:00,51.0,49.0,-100.00,SW,225,9.0,18.0,96,-99.99,,,-99.99,,2013-01-14 11:02:00,
2013-01-14 06:53:00,50.0,49.0,-100.00,SW,235,8.0,15.0,95,-99.99,,,-99.99,,2013-01-14 11:53:00,
2013-01-14 07:03:00,50.0,49.0,-100.00,SW,235,10.0,17.0,95,-99.99,,,-99.99,,2013-01-14 12:03:00,
2013-01-14 07:12:00,50.0,49.0,-100.00,SW,235,10.0,15.0,94,-99.99,,,-99.99,,2013-01-14 12:12:00,
2013-01-14 07:23:00,50.0,49.0,-100.00,SW,220,10.0,21.0,94,-99.99,,,-99.99,,2013-01-14 12:23:00,
2013-01-14 07:33:00,51.0,49.0,-100.00,South,190,12.0,24.0,94,-99.99,,,-99.99,,2013-01-14 12:33:00,
2013-01-14 07:43:00,51.0,49.0,-100.00,WSW,240,12.0,20.0,94,-99.99,,,-99.99,,2013-01-14 12:43:00,
2013-01-14 07:53:00,51.0,49.0,-100.00,WSW,240,12.0,22.0,92,-99.99,,,-99.99,,2013-01-14 12:53:00,
2013-01-14 08:03:00,51.0,49.0,-100.00,WNW,290,7.0,13.0,92,-99.99,,,-99.99,,2013-01-14 13:03:00,
2013-01-14 08:13:00,51.0,49.0,-100.00,West,275,3.0,10.0,92,-99.99,,,-99.99,,2013-01-14 13:13:00,
2013-01-14 08:23:00,51.0,49.0,-100.00,SW,235,10.0,16.0,93,-99.99,,,-99.99,,2013-01-14 13:23:00,
2013-01-14 08:33:00,51.0,49.0,-100.00,WSW,245,6.0,14.0,92,-99.99,,,-99.99,,2013-01-14 13:33:00,
2013-01-14 08:43:00,51.0,49.0,-100.00,WSW,250,7.0,14.0,93,-99.99,,,-99.99,,2013-01-14 13:43:00,
2013-01-14 08:53:00,51.0,49.0,-100.00,WSW,245,8.0,14.0,93,-99.99,,,-99.99,,2013-01-14 13:53:00,
2013-01-14 09:03:00,51.0,49.0,-100.00,WSW,240,8.0,13.0,93,-99.99,,,-99.99,,2013-01-14 14:03:00,
2013-01-14 09:13:00,52.0,50.0,-100.00,SW,235,9.0,15.0,93,-99.99,,,-99.99,,2013-01-14 14:13:00,
2013-01-14 09:23:00,52.0,50.0,-100.00,SW,225,6.0,17.0,93,-99.99,,,-99.99,,2013-01-14 14:23:00,
2013-01-14 09:33:00,52.0,50.0,-100.00,WSW,240,7.0,13.0,93,-99.99,,,-99.99,,2013-01-14 14:33:00,
2013-01-14 09:43:00,52.0,50.0,-100.00,SW,230,12.0,17.0,92,-99.99,,,-99.99,,2013-01-14 14:43:00,
2013-01-14 09:53:00,52.0,50.0,-100.00,WSW,250,8.0,15.0,92,-99.99,,,-99.99,,2013-01-14 14:53:00,
2013-01-14 10:03:00,52.0,50.0,-100.00,WSW,240,8.0,16.0,92,-99.99,,,-99.99,,2013-01-14 15:03:00,
2013-01-14 10:12:00,52.0,50.0,-100.00,WSW,245,6.0,14.0,92,-99.99,,,-99.99,,2013-01-14 15:12:00,
2013-01-14 10:23:00,53.0,50.0,-100.00,WSW,240,7.0,12.0,91,-99.99,,,-99.99,,2013-01-14 15:23:00,
2013-01-14 10:33:00,53.0,50.0,-100.00,WSW,245,9.0,14.0,89,-99.99,,,-99.99,,2013-01-14 15:33:00,
2013-01-14 10:43:00,53.0,50.0,-100.00,WSW,240,9.0,16.0,88,-99.99,,,-99.99,,2013-01-14 15:43:00,
2013-01-14 10:53:00,54.0,50.0,-100.00,WSW,245,10.0,15.0,87,-99.99,,,-99.99,,2013-01-14 15:53:00,
2013-01-14 12:03:00,56.0,50.0,-100.00,WSW,240,9.0,15.0,81,-99.99,,,-99.99,,2013-01-14 17:03:00,
2013-01-14 12:12:00,57.0,50.0,-100.00,WSW,250,7.0,18.0,79,-99.99,,,-99.99,,2013-01-14 17:12:00,
2013-01-14 12:23:00,56.0,50.0,-100.00,WSW,245,7.0,13.0,79,-99.99,,,-99.99,,2013-01-14 17:23:00,
2013-01-14 12:33:00,56.0,49.0,-100.00,WSW,245,8.0,14.0,78,-99.99,,,-99.99,,2013-01-14 17:33:00,
2013-01-14 12:43:00,58.0,50.0,-100.00,SW,235,8.0,12.0,77,-99.99,,,-99.99,,2013-01-14 17:43:00,
2013-01-14 12:53:00,58.0,50.0,-100.00,SW,235,6.0,14.0,73,-99.99,,,-99.99,,2013-01-14 17:53:00,
2013-01-14 13:03:00,60.0,50.0,-100.00,WSW,245,7.0,13.0,69,-99.99,,,-99.99,,2013-01-14 18:03:00,
2013-01-14 13:13:00,60.0,49.0,-100.00,WSW,250,7.0,14.0,66,-99.99,,,-99.99,,2013-01-14 18:13:00,
2013-01-14 13:23:00,60.0,49.0,-100.00,WSW,250,6.0,15.0,65,-99.99,,,-99.99,,2013-01-14 18:23:00,
2013-01-14 13:33:00,60.0,48.0,-100.00,West,270,8.0,16.0,64,-99.99,,,-99.99,,2013-01-14 18:33:00,
2013-01-14 13:43:00,61.0,47.0,-100.00,WSW,250,10.0,15.0,61,-99.99,,,-99.99,,2013-01-14 18:43:00,
2013-01-14 14:33:00,61.0,47.0,-100.00,West,260,9.0,17.0,60,-99.99,,,-99.99,,2013-01-14 19:33:00,
2013-01-14 14:43:00,62.0,47.0,-100.00,WSW,245,7.0,17.0,59,-99.99,,,-99.99,,2013-01-14 19:43:00,
2013-01-14 14:53:00,61.0,47.0,-100.00,West,275,5.0,14.0,59,-99.99,,,-99.99,,2013-01-14 19:53:00,
2013-01-14 15:04:00,62.0,46.0,-100.00,West,260,9.0,16.0,57,-99.99,,,-99.99,,2013-01-14 20:04:00,
2013-01-14 15:13:00,61.0,44.0,-100.00,NNW,340,5.0,14.0,53,-99.99,,,-99.99,,2013-01-14 20:13:00,
2013-01-14 16:30:00,53.0,34.0,-100.00,West,260,5.0,13.0,48,-99.99,,,-99.99,,2013-01-14 21:30:00,
2013-01-14 16:33:00,55.0,35.0,-100.00,NNW,340,2.0,8.0,47,-99.99,,,-99.99,,2013-01-14 21:33:00,
2013-01-14 16:43:00,54.0,35.0,-100.00,NE,40,5.0,14.0,48,-99.99,,,-99.99,,2013-01-14 21:43:00,
2013-01-14 16:53:00,54.0,35.0,-100.00,WNW,290,5.0,12.0,48,-99.99,,,-99.99,,2013-01-14 21:53:00,
2013-01-14 17:03:00,54.0,35.0,-100.00,WNW,290,5.0,12.0,48,-99.99,,,-99.99,,2013-01-14 22:03:00,
2013-01-14 17:12:00,53.0,34.0,-100.00,West,260,5.0,13.0,48,-99.99,,,-99.99,,2013-01-14 22:12:00,
2013-01-14 17:23:00,53.0,34.0,-100.00,West,260,5.0,13.0,48,-99.99,,,-99.99,,2013-01-14 22:23:00,
2013-01-14 21:00:00,-999.0,-99.9,-100.00,NW,325,2.0,10.0,-999,-99.99,,,-99.99,,2013-01-15 02:00:00,
2013-01-14 22:33:00,42.0,26.0,-100.00,WNW,285,2.0,7.0,54,-99.99,,,-99.99,,2013-01-15 03:33:00,
2013-01-14 22:42:00,42.0,26.0,-100.00,NW,305,3.0,13.0,54,-99.99,,,-99.99,,2013-01-15 03:42:00,
2013-01-14 22:52:00,41.0,26.0,-100.00,WNW,290,5.0,10.0,55,-99.99,,,-99.99,,2013-01-15 03:52:00,
2013-01-14 23:03:00,41.0,26.0,-100.00,WNW,290,5.0,10.0,55,-99.99,,,-99.99,,2013-01-15 04:03:00,
2013-01-14 23:12:00,41.0,27.0,-100.00,North,5,2.0,9.0,57,-99.99,,,-99.99,,2013-01-15 04:12:00,
2013-01-14 23:22:00,41.0,27.0,-100.00,North,5,2.0,9.0,57,-99.99,,,-99.99,,2013-01-15 04:22:00,
2013-01-14 23:33:00,41.0,26.0,-100.00,NW,325,2.0,12.0,55,-99.99,,,-99.99,,2013-01-15 04:33:00,
2013-01-14 23:42:00,40.0,26.0,-100.00,West,260,2.0,7.0,56,-99.99,,,-99.99,,2013-01-15 04:42:00,
2013-01-14 23:52:00,40.0,26.0,-100.00,West,260,2.0,7.0,56,-99.99,,,-99.99,,2013-01-15 04:52:00,